Beijing-1

operational
NORAD ID: 28890 Int'l Des: 2005-043 Owner: BLMIT Country: CN
LEOCIRCULARRETROGRADESSO

Über Beijing-1

Beschreibung wird geladen...

Live-Position

3D-Globus wird geladen...

Nächste Überflüge

Höhenverlauf

Altitude vs Time

uPlot chart will show altitude changes over time

Zweizeiliger Elementsatz

1 28890U 05043A 26063.20263100 .00000401 00000-0 86888-4 0 9997
2 28890 98.2718 195.9375 0013404 248.8265 111.1504 14.63453383 85297
Epoch: 4. März 2026 • Age: 12 hours

Aktueller Status

Höhe 681.7 km
Geschwindigkeit 7.52 km/s
Subsatellitenpunkt -7.98°S, 28.55°E
Startdatum 27. Okt. 2005
Alter 20.3 years
Typ other

Technische Details

Klassifizierung Payload
Masse 150.00 kg
Trockenmasse 150.00 kg
Gesamtmasse 150.00 kg
Länge 0.90 m
Durchmesser 0.80 m
Spannweite 0.90 m
Form Box
Hersteller SSTL
Bus-Typ SSTL-150
Phasenstatus In Orbit
Besitzer/Staat BLMIT/CN

Große Konstellationen

Loading constellations...